シャイン-シャルダハ彗星

61P/Shajn-Schaldach (2008)

English version
Home page
Updated on May 5, 2012

---------------------------------------------------------------------

・ プロフィール

・ 写真集

・ 軌道要素

Epoch 2008 Sept. 11.0 TT = JDT 2454720.5
T 2008 Sept. 6.07529 TT                                 MPC
q   2.1080085            (2000.0)            P               Q
n   0.13985634     Peri.  221.62418     +0.90716970     -0.41966447
a   3.6757668      Node   163.11392     +0.40839813     +0.86080956
e   0.4265119      Incl.    6.00978     +0.10126253     +0.28790386
P   7.05
From 668 observations 1993 May 27-2010 May 10, mean residual 0".8.
     Nongravitational parameters A1 = +0.65, A2 = -0.1868.

・ 星図

・ 光度変化

        m1 = 11.5 + 5 logΔ + 10.0 log r(t + 65)

---------------------------------------------------------------------

軌道要素はM.P.E.C. 2012-J16に掲載されたものです。
星図は StellaNavigator Ver.2.0 for Windows (アストロアーツ編著 / アスキー出版局刊) で作成したものです。
光度グラフはComet for Windowsで作成したものです。

---------------------------------------------------------------------

Copyright(C) Seiichi Yoshida (comet@aerith.net). All rights reserved.